GW0865 Weather Reports


time (UTC)temp
C
wind
direction
speed
KPH
gust
KPH
rain 1hr
cm
rain 24hr
cm
rain mn
cm
humidity
%
barometer
mb
20260505200046 11 80 1.6 4.8 0.00 0.00 0.00 66 1012.9
20260505194539 11 0 1.6 11.3 0.00 0.00 0.00 67 1012.7
20260505193037 12 306 1.6 6.4 0.00 0.00 0.00 68 1012.6
20260505191545 12 342 1.6 6.4 0.00 0.00 0.00 69 1012.5
20260505190044 12 89 1.6 8.0 0.00 0.00 0.00 70 1012.4
20260505184538 12 5 1.6 12.9 0.00 0.00 0.00 69 1012.4
20260505183045 12 91 1.6 6.4 0.00 0.00 0.00 65 1012.3
20260505181540 12 309 0.0 9.7 0.00 0.00 0.00 65 1012.3
20260505180047 12 30 6.4 12.9 0.00 0.00 0.00 64 1012.2
20260505174543 12 284 1.6 8.0 0.00 0.00 0.00 65 1012.2
20260505173039 12 265 3.2 12.9 0.00 0.00 0.00 64 1012.3
20260505171540 13 85 1.6 11.3 0.00 0.00 0.00 64 1012.3
20260505170038 13 45 3.2 11.3 0.00 0.00 0.00 64 1012.4
20260505164556 13 35 3.2 14.5 0.00 0.00 0.00 64 1012.3
20260505163050 13 27 4.8 9.7 0.00 0.00 0.00 61 1012.3
20260505161539 13 28 3.2 9.7 0.00 0.00 0.00 61 1012.2
20260505153036 14 297 3.2 16.1 0.00 0.00 0.00 58 1012.3
20260505151547 14 336 1.6 8.0 0.00 0.00 0.00 56 1012.3
20260505124553 14 312 4.8 14.5 0.00 0.00 0.00 56 1012.6
20260505123044 14 92 3.2 14.5 0.00 0.00 0.00 54 1012.5
20260505121538 14 47 6.4 16.1 0.00 0.00 0.00 54 1012.7
20260505120037 14 296 4.8 16.1 0.00 0.00 0.00 57 1012.7
20260505114543 13 75 4.8 19.3 0.00 0.00 0.00 56 1012.8
20260505113050 13 253 3.2 16.1 0.00 0.00 0.00 58 1012.8
20260505111542 13 14 4.8 16.1 0.00 0.00 0.00 59 1012.9
20260505101603 12 355 4.8 14.5 0.00 0.00 0.00 64 1013.3
20260505100043 12 333 4.8 14.5 0.00 0.00 0.00 65 1013.2
20260505094540 12 46 3.2 11.3 0.00 0.00 0.00 65 1013.3
20260505093039 12 312 4.8 19.3 0.00 0.00 0.00 67 1013.5
20260505091537 12 300 4.8 19.3 0.00 0.00 0.00 66 1013.4
20260505090045 12 33 4.8 14.5 0.00 0.00 0.00 67 1013.3
20260505084541 12 69 4.8 12.9 0.00 0.00 0.00 69 1013.5
20260505083042 12 348 3.2 14.5 0.00 0.00 0.00 72 1013.6
20260505081549 11 61 3.2 12.9 0.00 0.00 0.00 76 1013.6
20260505080042 10 298 4.8 11.3 0.00 0.00 0.00 78 1013.7
20260505074543 10 315 1.6 12.9 0.00 0.00 0.00 82 1013.7
20260505073049 10 354 3.2 9.7 0.00 0.00 0.00 83 1013.6
20260505071551 9 303 1.6 11.3 0.00 0.00 0.00 84 1013.6
20260505070043 9 339 1.6 9.7 0.00 0.00 0.00 83 1013.7
20260505064542 9 320 1.6 6.4 0.00 0.00 0.00 84 1013.7
20260505063043 8 0 0.0 6.4 0.00 0.00 0.00 88 1013.8
20260505061537 8 319 0.0 3.2 0.00 0.00 0.00 89 1013.8
20260505060045 7 28 0.0 3.2 0.00 0.00 0.00 91 1013.6
20260505054553 7 0 0.0 1.6 0.00 0.00 0.00 91 1013.7
20260505053057 7 0 0.0 1.6 0.00 0.00 0.00 92 1013.6
20260505051543 7 0 0.0 3.2 0.00 0.00 0.00 91 1013.6
20260505041539 7 288 0.0 4.8 0.00 0.00 0.00 90 1013.3
20260505040044 7 319 0.0 6.4 0.00 0.00 0.00 90 1013.4
20260505034543 7 310 0.0 6.4 0.00 0.00 0.00 90 1013.4
20260505033045 7 319 0.0 3.2 0.00 0.00 0.00 92 1013.4
20260505031540 6 0 0.0 4.8 0.00 0.00 0.00 93 1013.5
20260505030041 6 319 0.0 3.2 0.00 0.00 0.00 95 1013.6
20260505024538 6 0 0.0 4.8 0.00 0.00 0.00 95 1013.6
20260505023050 6 0 0.0 6.4 0.00 0.00 0.00 96 1013.6
20260505021540 6 309 0.0 3.2 0.00 0.00 0.00 97 1013.7
20260505020038 6 0 0.0 1.6 0.00 0.00 0.00 96 1013.6
20260505014541 6 0 0.0 1.6 0.00 0.00 0.00 96 1013.7
20260505013036 6 0 0.0 0.0 0.00 0.00 0.00 96 1013.8
20260505011551 6 0 0.0 0.0 0.00 0.00 0.00 95 1013.9
20260505010042 6 0 0.0 0.0 0.00 0.00 0.00 95 1014.0
20260505004541 6 0 0.0 0.0 0.00 0.00 0.00 95 1014.1
20260505003038 6 0 0.0 1.6 0.00 0.00 0.00 95 1014.3
20260505001538 7 258 0.0 1.6 0.00 0.00 0.00 95 1014.3
20260505000047 7 0 0.0 0.0 0.00 0.00 0.00 94 1014.4
20260504234543 7 0 0.0 1.6 0.00 0.00 0.00 95 1014.6
20260504233042 7 0 0.0 0.0 0.00 0.00 0.00 95 1014.6
20260504231541 7 0 0.0 0.0 0.00 0.00 0.00 95 1014.6
20260504230038 7 0 0.0 0.0 0.00 0.00 0.00 94 1014.7
20260504224541 7 0 0.0 0.0 0.00 0.00 0.00 94 1014.7
20260504223040 7 0 0.0 0.0 0.00 0.00 0.00 93 1014.7
20260504221543 7 0 0.0 1.6 0.00 0.00 0.00 93 1014.9
20260504220046 8 0 0.0 1.6 0.00 0.00 0.00 93 1014.6
20260504214549 8 0 0.0 1.6 0.00 0.00 0.00 92 1014.8
20260504213050 9 0 0.0 1.6 0.00 0.00 0.00 91 1014.9
20260504211544 9 0 0.0 0.0 0.00 0.00 0.00 91 1014.8
20260504210043 9 0 0.0 0.0 0.00 0.00 0.00 90 1014.9
20260504204545 10 0 0.0 0.0 0.00 0.00 0.00 88 1015.0
20260504203038 10 0 0.0 0.0 0.00 0.00 0.00 86 1014.9
20260504201538 11 0 0.0 1.6 0.00 0.00 0.00 85 1014.9